TimeEST,TemperatureF,Dew PointF,Humidity,Sea Level PressureIn,VisibilityMPH,Wind Direction,Wind SpeedMPH,Gust SpeedMPH,PrecipitationIn,Events,Conditions,WindDirDegrees,DateUTC
12:53 AM,37.0,18.0,46,29.66,10.0,SW,8.1,-,N/A,,Clear,230,2014-02-14 05:53:00
1:53 AM,37.0,18.0,46,29.66,10.0,SW,9.2,-,N/A,,Clear,220,2014-02-14 06:53:00
2:53 AM,35.1,19.0,52,29.68,10.0,WSW,10.4,-,N/A,,Clear,240,2014-02-14 07:53:00
3:53 AM,39.0,19.0,45,29.68,10.0,WSW,13.8,-,0.01,,Clear,240,2014-02-14 08:53:00
4:53 AM,39.9,19.9,45,29.70,10.0,WSW,15.0,23.0,N/A,,Clear,250,2014-02-14 09:53:00
5:53 AM,39.0,21.0,49,29.72,10.0,WSW,12.7,-,N/A,,Clear,250,2014-02-14 10:53:00
6:53 AM,37.9,19.9,48,29.74,10.0,SW,10.4,-,N/A,,Clear,230,2014-02-14 11:53:00
7:53 AM,37.0,19.9,50,29.74,10.0,South,4.6,-,N/A,,Clear,190,2014-02-14 12:53:00
8:53 AM,39.0,23.0,53,29.74,10.0,SW,12.7,-,N/A,,Clear,230,2014-02-14 13:53:00
9:53 AM,44.1,21.0,40,29.75,10.0,SSW,10.4,-,0.01,,Clear,200,2014-02-14 14:53:00
10:53 AM,46.9,21.0,36,29.75,10.0,SSW,9.2,-,0.01,,Clear,210,2014-02-14 15:53:00
11:53 AM,50.0,21.0,32,29.74,10.0,SW,9.2,-,0.06,,Clear,220,2014-02-14 16:53:00
12:53 PM,52.0,21.0,30,29.73,10.0,SSW,10.4,-,0.07,,Clear,210,2014-02-14 17:53:00
1:53 PM,54.0,21.0,28,29.72,10.0,SSW,10.4,19.6,0.06,,Clear,210,2014-02-14 18:53:00
2:53 PM,55.9,19.9,25,29.70,10.0,Variable,6.9,-,0.05,,Clear,0,2014-02-14 19:53:00
3:53 PM,54.0,25.0,33,29.68,10.0,South,8.1,17.3,0.03,,Clear,190,2014-02-14 20:53:00
4:53 PM,53.1,26.1,35,29.68,10.0,South,11.5,18.4,0.02,,Clear,190,2014-02-14 21:53:00
5:53 PM,50.0,28.0,43,29.69,10.0,South,10.4,-,N/A,,Clear,190,2014-02-14 22:53:00
6:53 PM,48.0,28.0,46,29.68,10.0,South,10.4,18.4,N/A,,Clear,190,2014-02-14 23:53:00
7:53 PM,46.9,28.0,48,29.67,10.0,South,8.1,-,N/A,,Clear,190,2014-02-15 00:53:00
8:53 PM,46.0,28.9,51,29.67,10.0,SSW,6.9,-,N/A,,Mostly Cloudy,200,2014-02-15 01:53:00
9:53 PM,45.0,30.0,56,29.67,10.0,SSW,8.1,-,N/A,,Mostly Cloudy,200,2014-02-15 02:53:00
10:53 PM,45.0,30.0,56,29.65,10.0,South,8.1,-,N/A,,Overcast,190,2014-02-15 03:53:00
11:53 PM,45.0,30.9,58,29.61,10.0,WSW,9.2,17.3,0.01,Rain,Light Rain,240,2014-02-15 04:53:00